TYSON58 TJSJ-KCHS

Flight info

Callsign TYSON58
Flight time 3h 1m
Altitude 36000
Route ACONY3 PALDE DCT DONQU DCT LETON/M081F380 L451 ILIDO DCT UKOKA/N0467F380 DCT PITRW
Aircraft B738/M-SDE2E3FGHIRWXY/LB1

Departure

Time 2026-05-06 18:03
Airport Luis Munoz Marin International Airport (TJSJ)

Arrival

Time 2026-05-06 21:05
Airport Charleston International Airport (KCHS)
Time Latitude Longitude Altitude Speed Heading
2026-05-06 17:47 18.43886 -66.00858 20 ft 0 kts 66°
2026-05-06 17:59 18.43891 -66.00850 20 ft 2 kts 50°
2026-05-06 17:59 18.43909 -66.00845 20 ft 3 kts 352°
2026-05-06 18:00 18.43931 -66.00864 20 ft 5 kts 302°
2026-05-06 18:00 18.43937 -66.00909 20 ft 8 kts 269°
2026-05-06 18:00 18.43931 -66.00974 20 ft 10 kts 251°
2026-05-06 18:00 18.43900 -66.01050 20 ft 12 kts 246°
2026-05-06 18:01 18.43866 -66.01143 20 ft 15 kts 251°
2026-05-06 18:01 18.43826 -66.01251 20 ft 17 kts 247°
2026-05-06 18:01 18.43803 -66.01355 20 ft 14 kts 262°
2026-05-06 18:01 18.43813 -66.01444 21 ft 13 kts 316°
2026-05-06 18:02 18.43885 -66.01448 20 ft 9 kts 38°
2026-05-06 18:02 18.43907 -66.01412 20 ft 5 kts 66°
2026-05-06 18:02 18.43907 -66.01410 20 ft 0 kts 66°
2026-05-06 18:03 18.44019 -66.01132 20 ft 85 kts 67°
2026-05-06 18:03 18.44358 -66.00298 30 ft 158 kts 69°
2026-05-06 18:03 18.44856 -65.99093 504 ft 197 kts 70°
2026-05-06 18:03 18.45456 -65.97747 1498 ft 204 kts 65°
2026-05-06 18:04 18.46457 -65.96617 2297 ft 232 kts 37°
2026-05-06 18:04 18.48114 -65.96188 2851 ft 259 kts 354°
2026-05-06 18:04 18.49713 -65.96949 4069 ft 258 kts 318°
2026-05-06 18:04 18.50852 -65.98402 5143 ft 260 kts 308°
2026-05-06 18:05 18.52076 -65.99819 6234 ft 266 kts 311°
2026-05-06 18:05 18.53378 -66.01307 6910 ft 285 kts 312°
2026-05-06 18:05 18.54757 -66.02880 7711 ft 295 kts 312°
2026-05-06 18:05 18.56125 -66.04458 8832 ft 293 kts 311°
2026-05-06 18:06 18.57478 -66.06037 9941 ft 293 kts 311°
2026-05-06 18:06 18.58849 -66.07641 10650 ft 306 kts 311°
2026-05-06 18:06 18.60347 -66.09379 11109 ft 327 kts 312°
2026-05-06 18:06 18.61902 -66.11180 11493 ft 347 kts 311°
2026-05-06 18:07 18.63567 -66.13111 11905 ft 363 kts 311°
2026-05-06 18:07 18.65283 -66.15110 12485 ft 372 kts 311°
2026-05-06 18:07 18.67018 -66.17149 13238 ft 375 kts 311°
2026-05-06 18:07 18.68763 -66.19215 13958 ft 379 kts 311°
2026-05-06 18:08 18.70527 -66.21302 14553 ft 383 kts 311°
2026-05-06 18:08 18.72296 -66.23401 15270 ft 383 kts 311°
2026-05-06 18:08 18.74071 -66.25507 15948 ft 384 kts 311°
2026-05-06 18:08 18.75852 -66.27622 16538 ft 387 kts 311°
2026-05-06 18:09 18.77640 -66.29751 17204 ft 389 kts 310°
2026-05-06 18:09 18.79442 -66.31895 17812 ft 392 kts 310°
2026-05-06 18:09 18.81265 -66.34063 18293 ft 397 kts 311°
2026-05-06 18:09 18.83100 -66.36250 18844 ft 399 kts 311°
2026-05-06 18:10 18.84956 -66.38460 19236 ft 404 kts 311°
2026-05-06 18:10 18.86820 -66.40681 19790 ft 404 kts 311°
2026-05-06 18:10 18.88691 -66.42914 20276 ft 407 kts 311°
2026-05-06 18:10 18.90562 -66.45148 20688 ft 411 kts 311°
2026-05-06 18:11 18.92476 -66.47410 21175 ft 413 kts 314°
2026-05-06 18:11 18.94567 -66.49523 21591 ft 417 kts 316°
2026-05-06 18:11 18.96672 -66.51644 22043 ft 419 kts 316°
2026-05-06 18:11 18.98783 -66.53793 22475 ft 422 kts 316°
2026-05-06 18:12 19.00904 -66.55962 22907 ft 425 kts 316°
2026-05-06 18:12 19.03007 -66.58116 23313 ft 428 kts 316°
2026-05-06 18:12 19.05159 -66.60322 23694 ft 431 kts 316°
2026-05-06 18:12 19.07330 -66.62536 24035 ft 433 kts 318°
2026-05-06 18:13 19.09632 -66.64598 24398 ft 435 kts 320°
2026-05-06 18:13 19.11953 -66.66670 24761 ft 437 kts 319°
2026-05-06 18:13 19.14257 -66.68746 25111 ft 439 kts 319°
2026-05-06 18:13 19.16582 -66.70847 25466 ft 440 kts 319°
2026-05-06 18:14 19.18916 -66.72959 25831 ft 442 kts 319°
2026-05-06 18:14 19.21256 -66.75079 26179 ft 444 kts 319°
2026-05-06 18:14 19.23609 -66.77210 26526 ft 446 kts 319°
2026-05-06 18:14 19.25968 -66.79349 26872 ft 448 kts 318°
2026-05-06 18:15 19.28352 -66.81510 27222 ft 450 kts 318°
2026-05-06 18:15 19.30732 -66.83668 27558 ft 452 kts 318°
2026-05-06 18:15 19.33121 -66.85837 27894 ft 454 kts 318°
2026-05-06 18:15 19.35499 -66.87995 28216 ft 456 kts 318°
2026-05-06 18:16 19.37910 -66.90185 28543 ft 457 kts 318°
2026-05-06 18:16 19.40343 -66.92396 28866 ft 459 kts 318°
2026-05-06 18:16 19.42772 -66.94603 29221 ft 460 kts 318°
2026-05-06 18:16 19.45201 -66.96812 29635 ft 459 kts 317°
2026-05-06 18:17 19.47592 -66.98987 30081 ft 458 kts 317°
2026-05-06 18:17 19.50008 -67.01186 30463 ft 457 kts 317°
2026-05-06 18:17 19.52422 -67.03383 30831 ft 456 kts 317°
2026-05-06 18:17 19.54826 -67.05572 31204 ft 455 kts 317°
2026-05-06 18:18 19.57229 -67.07763 31577 ft 455 kts 317°
2026-05-06 18:18 19.59631 -67.09951 31958 ft 454 kts 317°
2026-05-06 18:18 19.62032 -67.12140 32371 ft 453 kts 317°
2026-05-06 18:18 19.64421 -67.14320 32772 ft 452 kts 317°
2026-05-06 18:19 19.66802 -67.16493 33173 ft 451 kts 317°
2026-05-06 18:19 19.69175 -67.18660 33574 ft 450 kts 317°
2026-05-06 18:19 19.71518 -67.20800 33971 ft 449 kts 317°
2026-05-06 18:19 19.73884 -67.22961 34333 ft 447 kts 317°
2026-05-06 18:20 19.76247 -67.25121 34710 ft 445 kts 317°
2026-05-06 18:20 19.78592 -67.27266 35081 ft 444 kts 317°
2026-05-06 18:20 19.80932 -67.29407 35370 ft 444 kts 317°
2026-05-06 18:20 19.83243 -67.31522 35666 ft 444 kts 317°
2026-05-06 18:21 19.85586 -67.33667 35944 ft 444 kts 317°
2026-05-06 18:21 19.87932 -67.35816 36083 ft 446 kts 317°
2026-05-06 18:21 19.92625 -67.40117 36077 ft 443 kts 317°
2026-05-06 18:22 19.97305 -67.44410 36076 ft 444 kts 317°
2026-05-06 18:22 20.01952 -67.48675 36075 ft 444 kts 317°
2026-05-06 18:23 20.06630 -67.52974 36077 ft 444 kts 317°
2026-05-06 18:23 20.11299 -67.57267 36078 ft 443 kts 318°
2026-05-06 18:24 20.15961 -67.61557 36075 ft 443 kts 318°
2026-05-06 18:24 20.20626 -67.65853 36075 ft 443 kts 318°
2026-05-06 18:25 20.25287 -67.70151 36075 ft 443 kts 318°
2026-05-06 18:25 20.29914 -67.74419 36075 ft 443 kts 318°
2026-05-06 18:26 20.34574 -67.78721 36079 ft 443 kts 318°
2026-05-06 18:26 20.39234 -67.83027 36075 ft 443 kts 318°
2026-05-06 18:27 20.43886 -67.87330 36073 ft 443 kts 318°
2026-05-06 18:27 20.48547 -67.91643 36075 ft 443 kts 318°
2026-05-06 18:28 20.53170 -67.95927 36076 ft 443 kts 318°
2026-05-06 18:28 20.57817 -68.00235 36075 ft 443 kts 318°
2026-05-06 18:29 20.62473 -68.04553 36078 ft 443 kts 318°
2026-05-06 18:29 20.67126 -68.08873 36089 ft 443 kts 318°
2026-05-06 18:30 20.71004 -68.12438 36077 ft 442 kts 320°
2026-05-06 18:30 20.76578 -68.17237 36081 ft 442 kts 320°
2026-05-06 18:31 20.81352 -68.21374 36075 ft 441 kts 321°
2026-05-06 18:31 20.85344 -68.24838 36077 ft 441 kts 321°
2026-05-06 18:32 20.90105 -68.28972 36077 ft 441 kts 321°
2026-05-06 18:32 20.94830 -68.33079 36078 ft 441 kts 321°
2026-05-06 18:33 20.99592 -68.37221 36075 ft 441 kts 321°
2026-05-06 18:33 21.04351 -68.41363 36080 ft 440 kts 321°
2026-05-06 18:34 21.09102 -68.45502 36079 ft 440 kts 321°
2026-05-06 18:34 21.13849 -68.49642 36078 ft 440 kts 321°
2026-05-06 18:35 21.18566 -68.53759 36076 ft 439 kts 322°
2026-05-06 18:35 21.23291 -68.57886 36076 ft 438 kts 322°
2026-05-06 18:36 21.28013 -68.62014 36075 ft 438 kts 322°
2026-05-06 18:36 21.32731 -68.66142 36078 ft 438 kts 322°
2026-05-06 18:37 21.37459 -68.70282 36082 ft 437 kts 322°
2026-05-06 18:37 21.42137 -68.74383 36074 ft 436 kts 322°
2026-05-06 18:38 21.46843 -68.78511 36078 ft 436 kts 322°
2026-05-06 18:38 21.51545 -68.82640 36078 ft 436 kts 322°
2026-05-06 18:39 21.56245 -68.86770 36071 ft 436 kts 322°
2026-05-06 18:40 21.63259 -68.92939 36074 ft 434 kts 322°
2026-05-06 18:40 21.67904 -68.97031 36075 ft 434 kts 322°
2026-05-06 18:41 21.72568 -69.01141 36083 ft 434 kts 322°
2026-05-06 18:41 21.77230 -69.05254 36077 ft 433 kts 322°
2026-05-06 18:42 21.81887 -69.09366 36080 ft 433 kts 322°
2026-05-06 18:42 21.86533 -69.13472 36081 ft 432 kts 322°
2026-05-06 18:43 21.91184 -69.17585 36078 ft 433 kts 322°
2026-05-06 18:43 21.95830 -69.21698 36076 ft 431 kts 323°
2026-05-06 18:44 22.00448 -69.25789 36082 ft 430 kts 323°
2026-05-06 18:44 22.05073 -69.29891 36081 ft 430 kts 323°
2026-05-06 18:45 22.09691 -69.33990 36080 ft 429 kts 323°
2026-05-06 18:45 22.14270 -69.38057 36078 ft 429 kts 323°
2026-05-06 18:46 22.18882 -69.42158 36080 ft 429 kts 323°
2026-05-06 18:46 22.23485 -69.46254 36080 ft 429 kts 323°
2026-05-06 18:47 22.28086 -69.50352 36081 ft 429 kts 323°
2026-05-06 18:47 22.32685 -69.54452 36080 ft 427 kts 323°
2026-05-06 18:48 22.37228 -69.58505 36077 ft 425 kts 323°
2026-05-06 18:48 22.41788 -69.62577 36095 ft 425 kts 323°
2026-05-06 18:49 22.46335 -69.66642 36078 ft 423 kts 323°
2026-05-06 18:49 22.50873 -69.70701 36082 ft 423 kts 323°
2026-05-06 18:50 22.55414 -69.74767 36087 ft 423 kts 323°
2026-05-06 18:50 22.59952 -69.78834 36081 ft 423 kts 323°
2026-05-06 18:51 22.64488 -69.82903 36082 ft 423 kts 323°
2026-05-06 18:51 22.69027 -69.86978 36076 ft 423 kts 323°
2026-05-06 18:52 22.73507 -69.91003 36085 ft 420 kts 323°
2026-05-06 18:52 22.78015 -69.95058 36089 ft 420 kts 323°
2026-05-06 18:53 22.82513 -69.99106 36087 ft 420 kts 323°
2026-05-06 18:53 22.87012 -70.03161 36089 ft 420 kts 323°
2026-05-06 18:54 22.91474 -70.07184 36087 ft 420 kts 323°
2026-05-06 18:54 22.95967 -70.11239 36089 ft 420 kts 323°
2026-05-06 18:55 23.00459 -70.15297 36082 ft 420 kts 323°
2026-05-06 18:55 23.04945 -70.19353 36088 ft 420 kts 323°
2026-05-06 18:56 23.09424 -70.23406 36084 ft 416 kts 323°
2026-05-06 18:56 23.13871 -70.27434 36087 ft 416 kts 323°
2026-05-06 18:57 23.18284 -70.31436 36085 ft 415 kts 323°
2026-05-06 18:57 23.22720 -70.35460 36083 ft 415 kts 323°
2026-05-06 18:58 23.27158 -70.39491 36089 ft 416 kts 323°
2026-05-06 18:58 23.31597 -70.43527 36089 ft 415 kts 323°
2026-05-06 18:59 23.36030 -70.47560 36086 ft 415 kts 323°
2026-05-06 18:59 23.40463 -70.51597 36086 ft 415 kts 323°
2026-05-06 19:00 23.44867 -70.55611 36083 ft 413 kts 323°
2026-05-06 19:00 23.49261 -70.59620 36087 ft 411 kts 323°
2026-05-06 19:01 23.53652 -70.63630 36091 ft 412 kts 323°
2026-05-06 19:01 23.58051 -70.67650 36089 ft 412 kts 323°
2026-05-06 19:02 23.62440 -70.71666 36089 ft 412 kts 323°
2026-05-06 19:02 23.66807 -70.75664 36089 ft 412 kts 323°
2026-05-06 19:03 23.71194 -70.79684 36087 ft 412 kts 323°
2026-05-06 19:03 23.75584 -70.83711 36088 ft 412 kts 323°
2026-05-06 19:04 23.79969 -70.87738 36096 ft 412 kts 323°
2026-05-06 19:04 23.84337 -70.91751 36084 ft 408 kts 323°
2026-05-06 19:05 23.88689 -70.95754 36083 ft 408 kts 323°
2026-05-06 19:05 23.93040 -70.99760 36086 ft 409 kts 323°
2026-05-06 19:06 23.97360 -71.03741 36087 ft 409 kts 323°
2026-05-06 19:06 24.01710 -71.07753 36088 ft 408 kts 323°
2026-05-06 19:07 24.06055 -71.11763 36087 ft 409 kts 323°
2026-05-06 19:07 24.10403 -71.15781 36086 ft 408 kts 323°
2026-05-06 19:08 24.14742 -71.19794 36098 ft 408 kts 323°
2026-05-06 19:08 24.19076 -71.23806 36089 ft 408 kts 323°
2026-05-06 19:09 24.23380 -71.27795 36089 ft 408 kts 323°
2026-05-06 19:09 24.27713 -71.31813 36088 ft 408 kts 323°
2026-05-06 19:10 24.32041 -71.35830 36085 ft 408 kts 323°
2026-05-06 19:10 24.36368 -71.39851 36086 ft 408 kts 323°
2026-05-06 19:11 24.40692 -71.43872 36090 ft 408 kts 323°
2026-05-06 19:11 24.45019 -71.47900 36089 ft 408 kts 323°
2026-05-06 19:12 24.49349 -71.51935 36096 ft 407 kts 323°
2026-05-06 19:12 24.53634 -71.55931 36083 ft 406 kts 323°
2026-05-06 19:13 24.57934 -71.59944 36086 ft 405 kts 323°
2026-05-06 19:13 24.62237 -71.63964 36091 ft 405 kts 323°
2026-05-06 19:14 24.66531 -71.67979 36090 ft 405 kts 323°
2026-05-06 19:14 24.70826 -71.71998 36091 ft 405 kts 323°
2026-05-06 19:15 24.75122 -71.76022 36096 ft 405 kts 323°
2026-05-06 19:15 24.79409 -71.80041 36094 ft 405 kts 323°
2026-05-06 19:16 24.83668 -71.84039 36097 ft 405 kts 322°
2026-05-06 19:16 24.87954 -71.88064 36092 ft 404 kts 322°
2026-05-06 19:17 24.92231 -71.92086 36081 ft 405 kts 322°
2026-05-06 19:17 24.96527 -71.96129 36093 ft 405 kts 322°
2026-05-06 19:18 25.00896 -71.99965 36085 ft 401 kts 332°
2026-05-06 19:18 25.05753 -72.03056 36084 ft 402 kts 331°
2026-05-06 19:19 25.09785 -72.05632 36091 ft 402 kts 331°
2026-05-06 19:19 25.15430 -72.09229 36104 ft 402 kts 331°
2026-05-06 19:20 25.19466 -72.11802 36095 ft 402 kts 331°
2026-05-06 19:20 25.24320 -72.14898 36094 ft 402 kts 331°
2026-05-06 19:21 25.29170 -72.17995 36097 ft 402 kts 331°
2026-05-06 19:21 25.34019 -72.21095 36097 ft 402 kts 331°
2026-05-06 19:22 25.38874 -72.24201 36096 ft 402 kts 331°
2026-05-06 19:22 25.43680 -72.27279 36092 ft 402 kts 331°
2026-05-06 19:23 25.48538 -72.30393 36105 ft 402 kts 331°
2026-05-06 19:23 25.53380 -72.33499 36097 ft 402 kts 331°
2026-05-06 19:24 25.58225 -72.36611 36097 ft 402 kts 330°
2026-05-06 19:24 25.63028 -72.39698 36096 ft 402 kts 330°
2026-05-06 19:25 25.67865 -72.42811 36098 ft 402 kts 330°
2026-05-06 19:25 25.72698 -72.45923 36100 ft 402 kts 330°
2026-05-06 19:26 25.77535 -72.49041 36100 ft 402 kts 330°
2026-05-06 19:26 25.82371 -72.52161 36103 ft 401 kts 330°
2026-05-06 19:27 25.87175 -72.55264 36102 ft 401 kts 330°
2026-05-06 19:27 25.92013 -72.58392 36101 ft 402 kts 330°
2026-05-06 19:28 25.96838 -72.61514 36098 ft 401 kts 330°
2026-05-06 19:28 26.01662 -72.64638 36101 ft 400 kts 330°
2026-05-06 19:29 26.06479 -72.67762 36104 ft 400 kts 330°
2026-05-06 19:29 26.11261 -72.70865 36118 ft 400 kts 330°
2026-05-06 19:30 26.16072 -72.73990 36099 ft 400 kts 330°
2026-05-06 19:30 26.20883 -72.77119 36103 ft 400 kts 330°
2026-05-06 19:31 26.25701 -72.80254 36101 ft 400 kts 330°
2026-05-06 19:31 26.32921 -72.84959 36099 ft 401 kts 330°
2026-05-06 19:32 26.37734 -72.88099 36104 ft 400 kts 330°
2026-05-06 19:32 26.42514 -72.91221 36104 ft 400 kts 330°
2026-05-06 19:33 26.47330 -72.94369 36103 ft 401 kts 330°
2026-05-06 19:33 26.52137 -72.97514 36096 ft 400 kts 330°
2026-05-06 19:34 26.56944 -73.00663 36106 ft 400 kts 330°
2026-05-06 19:34 26.61731 -73.03801 36104 ft 400 kts 330°
2026-05-06 19:35 26.66540 -73.06957 36106 ft 400 kts 330°
2026-05-06 19:35 26.71343 -73.10112 36106 ft 400 kts 330°
2026-05-06 19:36 26.76144 -73.13269 36106 ft 400 kts 330°
2026-05-06 19:36 26.80945 -73.16430 36104 ft 400 kts 330°
2026-05-06 19:37 26.85749 -73.19594 36106 ft 400 kts 330°
2026-05-06 19:37 26.90545 -73.22758 36106 ft 400 kts 330°
2026-05-06 19:38 26.95348 -73.25929 36104 ft 400 kts 330°
2026-05-06 19:38 27.00148 -73.29101 36102 ft 400 kts 330°
2026-05-06 19:39 27.04918 -73.32256 36101 ft 401 kts 329°
2026-05-06 19:39 27.09726 -73.35440 36103 ft 401 kts 329°
2026-05-06 19:40 27.14529 -73.38624 36106 ft 400 kts 329°
2026-05-06 19:40 27.19325 -73.41806 36107 ft 401 kts 329°
2026-05-06 19:41 27.24124 -73.44993 36104 ft 401 kts 329°
2026-05-06 19:41 27.28922 -73.48183 36106 ft 401 kts 329°
2026-05-06 19:42 27.33721 -73.51377 36106 ft 401 kts 329°
2026-05-06 19:42 27.38495 -73.54558 36113 ft 401 kts 329°
2026-05-06 19:43 27.43292 -73.57756 36102 ft 400 kts 329°
2026-05-06 19:43 27.48087 -73.60958 36101 ft 400 kts 329°
2026-05-06 19:44 27.52862 -73.64148 36106 ft 400 kts 329°
2026-05-06 19:44 27.57665 -73.67361 36099 ft 400 kts 329°
2026-05-06 19:45 27.62423 -73.70547 36106 ft 400 kts 329°
2026-05-06 19:45 27.67210 -73.73756 36106 ft 400 kts 329°
2026-05-06 19:46 27.71997 -73.76968 36108 ft 400 kts 328°
2026-05-06 19:46 27.76778 -73.80180 36105 ft 400 kts 328°
2026-05-06 19:47 27.81560 -73.83395 36100 ft 400 kts 328°
2026-05-06 19:47 27.86339 -73.86611 36106 ft 400 kts 328°
2026-05-06 19:48 27.91088 -73.89811 36106 ft 400 kts 328°
2026-05-06 19:48 27.95864 -73.93031 36105 ft 400 kts 328°
2026-05-06 19:49 28.00640 -73.96255 36116 ft 400 kts 328°
2026-05-06 19:49 28.05414 -73.99482 36106 ft 399 kts 328°
2026-05-06 19:50 28.10173 -74.02700 36099 ft 397 kts 328°
2026-05-06 19:50 28.14920 -74.05915 36100 ft 397 kts 328°
2026-05-06 19:51 28.19635 -74.09110 36106 ft 397 kts 328°
2026-05-06 19:51 28.24323 -74.12427 36092 ft 397 kts 320°
2026-05-06 19:52 28.28246 -74.16833 36088 ft 397 kts 316°
2026-05-06 19:52 28.32155 -74.21291 36111 ft 398 kts 316°
2026-05-06 19:53 28.36009 -74.25743 36106 ft 397 kts 315°
2026-05-06 19:53 28.39881 -74.30228 36103 ft 397 kts 315°
2026-05-06 19:54 28.43749 -74.34714 36102 ft 397 kts 315°
2026-05-06 19:54 28.47615 -74.39205 36097 ft 397 kts 315°
2026-05-06 19:55 28.51450 -74.43663 36104 ft 397 kts 315°
2026-05-06 19:55 28.55314 -74.48160 36103 ft 397 kts 315°
2026-05-06 19:56 28.59173 -74.52657 36104 ft 397 kts 315°
2026-05-06 19:56 28.63029 -74.57155 36100 ft 397 kts 315°
2026-05-06 19:57 28.66887 -74.61661 36107 ft 396 kts 315°
2026-05-06 19:57 28.70724 -74.66146 36099 ft 395 kts 315°
2026-05-06 19:58 28.74570 -74.70648 36102 ft 395 kts 315°
2026-05-06 19:58 28.78380 -74.75112 36102 ft 395 kts 315°
2026-05-06 19:59 28.82217 -74.79613 36098 ft 395 kts 315°
2026-05-06 19:59 28.86053 -74.84118 36102 ft 395 kts 315°
2026-05-06 20:00 28.89883 -74.88621 36106 ft 395 kts 315°
2026-05-06 20:00 28.93712 -74.93128 36104 ft 395 kts 315°
2026-05-06 20:01 28.97519 -74.97614 36122 ft 395 kts 315°
2026-05-06 20:01 29.01334 -75.02114 36104 ft 393 kts 315°
2026-05-06 20:02 29.05146 -75.06617 36091 ft 394 kts 315°
2026-05-06 20:02 29.08968 -75.11135 36100 ft 395 kts 314°
2026-05-06 20:03 29.12772 -75.15639 36102 ft 395 kts 314°
2026-05-06 20:03 29.16595 -75.20169 36102 ft 395 kts 314°
2026-05-06 20:04 29.20415 -75.24702 36100 ft 395 kts 314°
2026-05-06 20:04 29.24239 -75.29243 36102 ft 395 kts 314°
2026-05-06 20:05 29.28054 -75.33780 36102 ft 395 kts 314°
2026-05-06 20:05 29.31845 -75.38293 36114 ft 394 kts 314°
2026-05-06 20:06 29.35633 -75.42808 36094 ft 393 kts 314°
2026-05-06 20:06 29.39431 -75.47340 36106 ft 394 kts 314°
2026-05-06 20:07 29.43227 -75.51874 36102 ft 394 kts 314°
2026-05-06 20:07 29.46380 -75.55644 36102 ft 394 kts 314°
2026-05-06 20:08 29.50182 -75.60197 36102 ft 394 kts 314°
2026-05-06 20:08 29.53975 -75.64743 36100 ft 394 kts 314°
2026-05-06 20:09 29.57747 -75.69268 36103 ft 394 kts 314°
2026-05-06 20:09 29.61537 -75.73822 36103 ft 394 kts 314°
2026-05-06 20:10 29.65318 -75.78369 36096 ft 391 kts 313°
2026-05-06 20:10 29.69071 -75.82888 36105 ft 391 kts 313°
2026-05-06 20:11 29.72826 -75.87415 36102 ft 391 kts 313°
2026-05-06 20:11 29.76583 -75.91948 36093 ft 391 kts 313°
2026-05-06 20:12 29.80306 -75.96448 36092 ft 391 kts 313°
2026-05-06 20:12 29.84055 -76.00982 36104 ft 391 kts 313°
2026-05-06 20:13 29.87802 -76.05520 36095 ft 391 kts 313°
2026-05-06 20:13 29.91548 -76.10062 36102 ft 391 kts 313°
2026-05-06 20:14 29.95293 -76.14608 36094 ft 391 kts 313°
2026-05-06 20:14 29.99037 -76.19159 36104 ft 391 kts 313°
2026-05-06 20:15 30.02781 -76.23715 36107 ft 391 kts 313°
2026-05-06 20:15 30.06524 -76.28274 36106 ft 391 kts 313°
2026-05-06 20:16 30.10261 -76.32831 36103 ft 391 kts 313°
2026-05-06 20:16 30.13981 -76.37374 36106 ft 391 kts 313°
2026-05-06 20:17 30.17717 -76.41941 36103 ft 391 kts 313°
2026-05-06 20:17 30.21461 -76.46524 36105 ft 391 kts 313°
2026-05-06 20:18 30.25181 -76.51082 36100 ft 391 kts 312°
2026-05-06 20:18 30.28906 -76.55652 36100 ft 389 kts 312°
2026-05-06 20:19 30.32618 -76.60212 36102 ft 389 kts 312°
2026-05-06 20:19 30.36336 -76.64784 36105 ft 389 kts 312°
2026-05-06 20:20 30.40049 -76.69356 36100 ft 390 kts 312°
2026-05-06 20:20 30.43763 -76.73933 36099 ft 390 kts 312°
2026-05-06 20:21 30.47476 -76.78513 36102 ft 389 kts 312°
2026-05-06 20:21 30.51165 -76.83070 36094 ft 389 kts 312°
2026-05-06 20:22 30.54874 -76.87657 36103 ft 389 kts 311°
2026-05-06 20:22 30.58576 -76.92240 36119 ft 388 kts 311°
2026-05-06 20:23 30.62257 -76.96802 36095 ft 386 kts 311°
2026-05-06 20:23 30.65977 -77.01331 36094 ft 387 kts 313°
2026-05-06 20:24 30.69712 -77.05776 36098 ft 387 kts 313°
2026-05-06 20:24 30.73473 -77.10261 36096 ft 387 kts 313°
2026-05-06 20:25 30.77226 -77.14745 36098 ft 387 kts 313°
2026-05-06 20:25 30.80983 -77.19238 36095 ft 387 kts 312°
2026-05-06 20:26 30.84739 -77.23735 36103 ft 387 kts 312°
2026-05-06 20:26 30.88483 -77.28222 36094 ft 386 kts 312°
2026-05-06 20:27 30.92214 -77.32700 36102 ft 384 kts 312°
2026-05-06 20:27 30.95912 -77.37144 36098 ft 384 kts 312°
2026-05-06 20:28 30.99640 -77.41628 36094 ft 384 kts 312°
2026-05-06 20:28 31.03353 -77.46101 36094 ft 384 kts 312°
2026-05-06 20:29 31.07066 -77.50578 36095 ft 384 kts 312°
2026-05-06 20:29 31.10782 -77.55064 36094 ft 384 kts 312°
2026-05-06 20:30 31.16326 -77.61768 36099 ft 383 kts 311°
2026-05-06 20:31 31.20030 -77.66253 36094 ft 383 kts 311°
2026-05-06 20:31 31.23727 -77.70735 36101 ft 382 kts 311°
2026-05-06 20:32 31.27409 -77.75205 36098 ft 382 kts 311°
2026-05-06 20:32 31.31087 -77.79676 36095 ft 382 kts 311°
2026-05-06 20:33 31.34771 -77.84158 36085 ft 382 kts 311°
2026-05-06 20:33 31.38423 -77.88606 36092 ft 382 kts 311°
2026-05-06 20:34 31.42099 -77.93091 36093 ft 382 kts 311°
2026-05-06 20:34 31.45778 -77.97583 36096 ft 381 kts 311°
2026-05-06 20:35 31.49441 -78.02062 36091 ft 380 kts 311°
2026-05-06 20:35 31.53098 -78.06538 36097 ft 379 kts 310°
2026-05-06 20:36 31.56741 -78.11004 36080 ft 379 kts 310°
2026-05-06 20:36 31.60369 -78.15456 36080 ft 379 kts 310°
2026-05-06 20:37 31.64010 -78.19928 36077 ft 379 kts 310°
2026-05-06 20:37 31.67654 -78.24412 36076 ft 379 kts 310°
2026-05-06 20:38 31.71295 -78.28896 36078 ft 379 kts 310°
2026-05-06 20:38 31.74914 -78.33359 36079 ft 379 kts 310°
2026-05-06 20:39 31.78553 -78.37850 36075 ft 379 kts 310°
2026-05-06 20:39 31.82189 -78.42345 36088 ft 379 kts 310°
2026-05-06 20:40 31.85799 -78.46812 36071 ft 378 kts 310°
2026-05-06 20:40 31.89427 -78.51308 36064 ft 379 kts 310°
2026-05-06 20:41 31.93060 -78.55815 36065 ft 379 kts 310°
2026-05-06 20:41 31.96685 -78.60318 36024 ft 376 kts 310°
2026-05-06 20:41 31.98478 -78.62546 35412 ft 373 kts 310°
2026-05-06 20:42 32.00233 -78.64729 34890 ft 370 kts 311°
2026-05-06 20:42 32.01992 -78.66919 34325 ft 367 kts 311°
2026-05-06 20:42 32.03762 -78.69125 33534 ft 374 kts 311°
2026-05-06 20:42 32.05573 -78.71381 32625 ft 384 kts 311°
2026-05-06 20:43 32.07436 -78.73704 31777 ft 394 kts 311°
2026-05-06 20:43 32.09345 -78.76087 30956 ft 404 kts 311°
2026-05-06 20:43 32.11298 -78.78525 30084 ft 414 kts 311°
2026-05-06 20:43 32.13289 -78.81014 29040 ft 419 kts 311°
2026-05-06 20:44 32.15293 -78.83519 28045 ft 420 kts 311°
2026-05-06 20:44 32.17322 -78.86058 26992 ft 428 kts 311°
2026-05-06 20:44 32.19350 -78.88597 26214 ft 434 kts 311°
2026-05-06 20:44 32.21429 -78.91202 25486 ft 436 kts 311°
2026-05-06 20:45 32.23517 -78.93820 24739 ft 437 kts 312°
2026-05-06 20:45 32.25601 -78.96436 23997 ft 436 kts 312°
2026-05-06 20:45 32.27668 -78.99031 23198 ft 431 kts 312°
2026-05-06 20:45 32.29718 -79.01607 22411 ft 426 kts 312°
2026-05-06 20:46 32.31733 -79.04141 21699 ft 421 kts 311°
2026-05-06 20:46 32.33727 -79.06650 21008 ft 415 kts 312°
2026-05-06 20:46 32.35686 -79.09117 20346 ft 409 kts 311°
2026-05-06 20:46 32.37618 -79.11552 19679 ft 403 kts 311°
2026-05-06 20:47 32.39528 -79.13960 19092 ft 396 kts 311°
2026-05-06 20:47 32.41406 -79.16330 18393 ft 393 kts 311°
2026-05-06 20:47 32.43259 -79.18669 17762 ft 386 kts 311°
2026-05-06 20:47 32.45101 -79.20997 16999 ft 384 kts 311°
2026-05-06 20:48 32.46894 -79.23262 16364 ft 380 kts 311°
2026-05-06 20:48 32.48691 -79.25536 15742 ft 376 kts 311°
2026-05-06 20:48 32.50470 -79.27788 15142 ft 372 kts 310°
2026-05-06 20:48 32.52234 -79.30022 14550 ft 369 kts 310°
2026-05-06 20:49 32.53987 -79.32243 13965 ft 367 kts 310°
2026-05-06 20:49 32.55726 -79.34447 13332 ft 366 kts 310°
2026-05-06 20:49 32.57458 -79.36643 12735 ft 363 kts 310°
2026-05-06 20:49 32.59176 -79.38824 12204 ft 359 kts 310°
2026-05-06 20:50 32.60857 -79.40959 11948 ft 349 kts 310°
2026-05-06 20:50 32.62495 -79.43039 11673 ft 339 kts 310°
2026-05-06 20:50 32.64064 -79.45034 11444 ft 330 kts 310°
2026-05-06 20:50 32.65608 -79.46999 11253 ft 320 kts 309°
2026-05-06 20:51 32.67101 -79.48898 11082 ft 310 kts 309°
2026-05-06 20:51 32.68547 -79.50739 10922 ft 300 kts 309°
2026-05-06 20:51 32.69949 -79.52525 10799 ft 290 kts 309°
2026-05-06 20:51 32.71271 -79.54211 10713 ft 268 kts 309°
2026-05-06 20:52 32.72498 -79.55775 10622 ft 249 kts 308°
2026-05-06 20:52 32.73651 -79.57267 10526 ft 242 kts 304°
2026-05-06 20:52 32.74604 -79.58945 10396 ft 250 kts 299°
2026-05-06 20:52 32.75560 -79.60698 10294 ft 256 kts 300°
2026-05-06 20:53 32.76544 -79.62471 10179 ft 258 kts 300°
2026-05-06 20:53 32.77542 -79.64250 9978 ft 259 kts 300°
2026-05-06 20:53 32.78545 -79.66029 9676 ft 260 kts 300°
2026-05-06 20:53 32.79553 -79.67808 9376 ft 260 kts 300°
2026-05-06 20:54 32.80564 -79.69590 9088 ft 259 kts 300°
2026-05-06 20:54 32.81557 -79.71338 8817 ft 258 kts 301°
2026-05-06 20:54 32.82562 -79.73105 8559 ft 258 kts 301°
2026-05-06 20:54 32.83565 -79.74872 8264 ft 257 kts 301°
2026-05-06 20:55 32.84562 -79.76631 7994 ft 254 kts 301°
2026-05-06 20:55 32.85543 -79.78360 7729 ft 251 kts 301°
2026-05-06 20:55 32.86519 -79.80083 7482 ft 250 kts 301°
2026-05-06 20:55 32.87491 -79.81798 7201 ft 248 kts 301°
2026-05-06 20:56 32.88453 -79.83494 6967 ft 247 kts 302°
2026-05-06 20:56 32.89417 -79.85194 6653 ft 247 kts 302°
2026-05-06 20:56 32.90371 -79.86878 6395 ft 244 kts 302°
2026-05-06 20:56 32.90998 -79.87988 6223 ft 242 kts 302°
2026-05-06 20:57 32.92232 -79.90164 5889 ft 238 kts 302°
2026-05-06 20:57 32.93150 -79.91786 5676 ft 235 kts 301°
2026-05-06 20:57 32.93764 -79.92877 5531 ft 235 kts 302°
2026-05-06 20:57 32.94686 -79.94509 5203 ft 240 kts 301°
2026-05-06 20:58 32.95612 -79.96152 4951 ft 244 kts 301°
2026-05-06 20:58 32.96571 -79.97842 4781 ft 248 kts 301°
2026-05-06 20:58 32.97535 -79.99560 4513 ft 250 kts 301°
2026-05-06 20:58 32.98504 -80.01278 4333 ft 247 kts 301°
2026-05-06 20:59 32.99446 -80.02943 4178 ft 238 kts 301°
2026-05-06 20:59 33.00354 -80.04558 4085 ft 231 kts 300°
2026-05-06 20:59 33.01232 -80.06119 3916 ft 226 kts 300°
2026-05-06 20:59 33.02097 -80.07652 3755 ft 219 kts 300°
2026-05-06 21:00 33.02936 -80.09136 3591 ft 212 kts 299°
2026-05-06 21:00 33.03743 -80.10572 3453 ft 205 kts 299°
2026-05-06 21:00 33.04489 -80.12008 3321 ft 200 kts 287°
2026-05-06 21:00 33.04498 -80.13558 3129 ft 184 kts 243°
2026-05-06 21:01 33.03645 -80.14565 3077 ft 171 kts 204°
2026-05-06 21:01 33.02474 -80.14724 2797 ft 177 kts 172°
2026-05-06 21:01 33.01416 -80.13955 2537 ft 186 kts 135°
2026-05-06 21:01 33.00661 -80.12748 2334 ft 182 kts 134°
2026-05-06 21:02 32.99840 -80.11608 2057 ft 178 kts 141°
2026-05-06 21:02 32.98918 -80.10670 1807 ft 170 kts 147°
2026-05-06 21:02 32.97981 -80.09890 1593 ft 160 kts 152°
2026-05-06 21:02 32.97089 -80.09204 1420 ft 148 kts 153°
2026-05-06 21:03 32.96247 -80.08568 1223 ft 137 kts 153°
2026-05-06 21:03 32.95464 -80.07975 1016 ft 132 kts 154°
2026-05-06 21:03 32.94690 -80.07389 855 ft 133 kts 152°
2026-05-06 21:03 32.93919 -80.06793 706 ft 131 kts 153°
2026-05-06 21:04 32.93155 -80.06219 539 ft 128 kts 153°
2026-05-06 21:04 32.92413 -80.05657 367 ft 126 kts 153°
2026-05-06 21:04 32.91665 -80.05091 152 ft 128 kts 152°
2026-05-06 21:04 32.90906 -80.04506 59 ft 126 kts 152°
2026-05-06 21:05 32.90326 -80.04078 43 ft 96 kts 148°
2026-05-06 21:05 32.89962 -80.03796 42 ft 40 kts 148°
2026-05-06 21:05 32.89779 -80.03657 41 ft 28 kts 148°
2026-05-06 21:05 32.89663 -80.03606 40 ft 13 kts 201°
2026-05-06 21:06 32.89643 -80.03703 42 ft 13 kts 275°
2026-05-06 21:06 32.89656 -80.03824 42 ft 16 kts 277°
2026-05-06 21:06 32.89671 -80.03969 43 ft 19 kts 277°
2026-05-06 21:06 32.89687 -80.04134 43 ft 21 kts 276°
2026-05-06 21:07 32.89703 -80.04322 43 ft 23 kts 275°
2026-05-06 21:07 32.89727 -80.04436 42 ft 10 kts 316°
2026-05-06 21:07 32.89805 -80.04451 43 ft 13 kts
2026-05-06 21:07 32.89908 -80.04450 43 ft 16 kts
2026-05-06 21:08 32.90018 -80.04448 43 ft 11 kts 359°
2026-05-06 21:08 32.90054 -80.04511 43 ft 11 kts 273°
2026-05-06 21:08 32.90057 -80.04612 43 ft 12 kts 270°
2026-05-06 21:08 32.90048 -80.04698 43 ft 8 kts 234°
2026-05-06 21:09 32.90007 -80.04715 43 ft 4 kts 180°
2026-05-06 21:09 32.89990 -80.04715 43 ft 0 kts 180°